www.pogodaiklimat.ru

Погода и климат >> Архив погоды >> Россия >> Ставропольский край >> Минеральные Воды


АРХИВ ПОГОДЫ в Минеральных Водах

Время (UTC), дата Ветер
(напр.,м/с)
 
Видим.   Явления Облачность Т
(С)
Тd
(С)
f
(%)
Тe
(С)
Тes
(С)
Комфортность P
(гПа)
Po
(гПа)
Тmin
(С)
Tmax
(С)
R
(мм)
R24
(мм)
S
(см)
18 15.11 штиль 0 10 км ясно +8.0 +3.7 74 +7 +7 тепло 1023.7 985.4
21 15.11 З 3 10 км ясно +8.3 +7.0 92 +6 +6 тепло 1024.9 986.6
00 16.11 З 4 4000 м дымка 10/10 300 м
[Sc]
+8.8 +7.0 88 +6 +6 тепло 1025.7 987.5
03 16.11 З 2 4000 м дымка 10/10 300 м
[Sc]
+8.3 +6.8 90 +6 +6 тепло 1027.5 989.1 +6.5
06 16.11 З 1 1000 м слабая морось 10/10 300 м
[St]
+8.1 +6.9 92 +7 +7 тепло 1029.1 990.7
09 16.11 СВ 2 1000 м слабая морось 10/10 300 м
[St]
+7.2 +6.1 93 +5 +5 тепло 1028.7 990.1
12 16.11 СВ 2 2000 м 10/10 300 м
[St]
+6.9 +5.8 93 +5 +5 по сезону 1028.5 989.9
15 16.11 СВ 2 2000 м слабая морось 10/10 300 м
[St]
+6.4 +5.5 94 +4 +4 по сезону 1028.8 990.1 +8.8 0.0
18 16.11 В 1 2000 м дымка {морось} 10/10 300 м
[St]
+6.4 +5.6 95 +5 +5 тепло 1028.3 989.6
21 16.11 В 2 2000 м дымка {морось} 10/10 300 м
[Sc]
+6.6 +5.4 92 +4 +4 тепло 1027.3 988.7
00 17.11 ЮВ 1 2000 м дымка 10/10 300 м
[Sc]
+6.6 +5.4 92 +5 +5 тепло 1027.4 988.8
03 17.11 В 1 2000 м дымка 10/10 300 м
[Sc]
+6.8 +5.3 90 +6 +6 тепло 1026.9 988.3 +6.3 0.0
06 17.11 СВ 1 10 км 10/10 1000 м
[Sc]
+7.4 +5.7 89 +6 +6 тепло 1027.3 988.8
09 17.11 СВ 2 10 км 10/10 1000 м
[Sc]
+9.8 +6.2 78 +8 +8 тепло 1026.5 988.3
12 17.11 СВ 4 4000 м дымка 10/10 300 м
[Sc]
+6.9 +5.4 90 +3 +3 по сезону 1027.2 988.6
15 17.11 В 4 4000 м дымка 10/10 300 м
[Sc]
+6.9 +4.4 84 +3 +3 по сезону 1027.4 988.8 +10.0
18 17.11 СВ 5 4000 м дымка 10/10 300 м
[Cb cap]
+5.2 +4.1 93 0 0 по сезону 1026.7 987.9
21 17.11 В 5
{11}
4000 м дымка 10/10 300 м
[Sc]
+3.9 +3.1 95 -1 -1 по сезону 1026.4 987.4
00 18.11 В 5
{10}
4000 м слабая морось 10/10 300 м
[St]
+3.4 +2.6 94 -2 -2 по сезону 1025.8 986.8
03 18.11 В 5 10 км {морось} 10/10 300 м
[Sc]
+3.7 +2.8 94 -2 -2 по сезону 1024.4 985.5 +3.4 0.0
06 18.11 В 5
{10}
10 км {морось} 10/10 300 м
[Sc]
+4.8 +2.8 87 0 0 по сезону 1024.3 985.5
09 18.11 В 4
{10}
20 км 10/10 600 м
[Sc]
+6.4 +2.3 75 +3 +3 по сезону 1023.5 985.0
12 18.11 В 4 20 км 10/10 600 м
[Sc]
+5.3 +3.2 86 +1 +1 по сезону 1022.6 984.0
15 18.11 В 4 10 км 10/10 600 м
[Sc]
+4.7 +2.3 84 +1 +1 по сезону 1022.3 983.6 +6.8
18 18.11 В 4 10 км 10/10 600 м
[Sc]
+4.0 +2.2 88 -1 -1 по сезону 1021.5 982.7
21 18.11 СВ 2 20 км дымка 10/10 600 м
[Sc]
+3.6 +2.4 92 +1 +1 по сезону 1020.1 981.4
00 19.11 В 1 4000 м дымка 10/10 600 м
[Sc]
+2.9 +2.2 95 +1 +1 по сезону 1019.6 980.7
03 19.11 В 1 4000 м дымка 10/10 600 м
[Sc]
+1.9 +1.3 96 0 0 по сезону 1018.5 979.6 +1.9
06 19.11 В 2 500 м туман ?/? +2.9 +2.2 95 -0 -0 по сезону 1018.5 979.7 +1.7
09 19.11 СВ 3 10 км {туман} 8/4 600 м
[Sc Ac trans]
+6.3 +3.4 82 +3 +4 по сезону 1016.3 978.0
12 19.11 СВ 5 20 км {туман} 4/0
[Ac trans Ci fib]
+8.4 +4.3 75 +5 +6 по сезону 1014.7 976.8
15 19.11 В 4 4000 м дымка ясно +4.8 +3.7 93 0 0 по сезону 1015.6 977.2 +8.5
18 19.11 В 3 4000 м дымка 10/10 300 м
[Sc]
+4.4 +3.6 95 +1 +1 по сезону 1015.2 976.7
21 19.11 В 2 4000 м дымка 10/10 1000 м
[Sc]
+5.1 +3.7 91 +2 +2 по сезону 1014.4 976.0
00 20.11 З 1 4000 м дымка 10/10 600 м
[Sc]
+4.4 +3.1 91 +3 +3 тепло 1013.8 975.4
03 20.11 В 1 4000 м дымка 8/5 300 м
[Sc Ac trans]
+3.6 +2.6 93 +2 +2 тепло 1013.4 974.9 +3.4
06 20.11 ЮВ 1 500 м туман ?/? +4.3 +3.6 95 +3 +3 тепло 1013.1 975.3 +1.3
09 20.11 СВ 2 1000 м дымка {туман} 10/10 300 м
[Sc]
+7.8 +5.4 85 +6 +6 тепло 1012.3 974.4
12 20.11 СВ 2 10 км {туман} ясно +10.4 +5.7 73 +9 +10 тепло 1010.8 973.3
15 20.11 СВ 2 4000 м дымка ясно +5.8 +4.3 90 +3 +3 по сезону 1011.2 973.0 +11.0
18 20.11 В 2 2000 м дымка ясно +5.2 +4.4 95 +2 +2 по сезону 1010.3 972.2
21 20.11 В 2 500 м туман ?/? +4.1 +3.5 96 +1 +1 по сезону 1008.5 970.3
00 21.11 В 1 500 м туман ?/? +3.0 +2.5 97 +1 +1 по сезону 1007.2 968.8
03 21.11 В 2 200 м туман ?/? +2.5 +2.0 96 -1 -1 по сезону 1005.9 967.5 +2.3
06 21.11 В 2 1000 м дымка {туман} ясно +3.2 +2.8 97 0 +1 по сезону 1005.5 967.3
09 21.11 В 3 4000 м дымка {туман} 10/10 300 м
[St]
+6.4 +4.6 88 +3 +3 по сезону 1002.7 965.0
12 21.11 В 3 10 км 10/10 300 м
[Sc]
+7.1 +5.0 86 +4 +4 по сезону 1000.5 963.0
15 21.11 В 3 4000 м дымка 10/10 300 м
[Sc]
+7.2 +5.4 88 +4 +4 по сезону 999.1 961.6 +7.3
18 21.11 ЮВ 2 4000 м дымка 10/10 300 м
[Sc]
+7.1 +5.5 90 +5 +5 тепло 998.2 960.7
21 21.11 З 4
{14}
4000 м дымка 10/10 300 м
[Sc]
+7.0 +4.6 85 +3 +3 тепло 1000.6 963.0
00 22.11 З 10 10 км 10/10 600 м
[]
+4.6 +0.8 76 1004.3 966.4
03 22.11 З 10-16
{21}
10 км 8/8 600 м
[Sc]
+4.1 -1.0 69 -2 -2 по сезону 1008.7 970.4 +3.8
06 22.11 З 7-14
{17}
10 км 10/10 1000 м
[Sc]
+3.4 -2.7 64 -2 -2 по сезону 1013.1 974.5 +3.4
09 22.11 З 5-10
{14}
20 км 10/10 1000 м
[Sc]
+4.4 -2.5 61 0 0 по сезону 1013.5 975.1
12 22.11 З 3
{10}
20 км 10/10 1000 м
[Sc]
+4.7 -3.3 56 +2 +2 по сезону 1014.8 976.3
15 22.11 ЮЗ 2 10 км 10/10 1000 м
[Sc]
+3.6 -3.0 62 +1 +1 по сезону 1015.2 976.6 +4.9

 

Местоположение метеостанции Минеральные Воды (Ставропольский край, Россия): широта 44.22 долгота 43.10 высота над уровнем моря 313 м.

В архиве по умолчанию представлена погода в Минеральных Водах за последнюю неделю. Архивные данные за месяц целиком и за предыдущие месяцы, начиная с января 2011 года, Вы можете получить, выбрав интересующий диапазон дат из раскрывающегося списка и нажав кнопку "Ввод!".

Внимание! Время в таблицах - всемирное. Для получения местного времени необходимо прибавить поправку, которая в Минеральных Водах равна 3 ч.

Смотрите также архив погоды в соседних городах и на ближайших метеорологических станциях:

Погода в Георгиевске (Ставропольский край, Россия) (30 км)
Погода в Кисловодске (Ставропольский край, Россия) (47 км)
Погода в Александровском (Ставропольский край, Россия) (56 км)
Погода в Шаджатмазе (Карачаево-Черкессия, Россия) (64 км)
Погода в Зеленокумске (Ставропольский край, Россия) (66 км)
Погода в Черкесске (Карачаево-Черкессия, Россия) (82 км)
Погода в Нальчике (Кабардино-Балкария, Россия) (88 км)
Погода в Прохладный (Кабардино-Балкария, Россия) (92 км)
Погода в Невинномысске (Ставропольский край, Россия) (101 км)
Погода в Благодарном (Ставропольский край, Россия) (102 км)

Пояснения к столбцам:

Ветер - указаны скорость ветра в м/с - средняя за 10 мин, порывы в срок и между сроками (в фигурных скобках) и направление, откуда дует ветер: С - северный, СВ - северо-восточный, В - восточный, ЮВ - юго-восточный, Ю - южный, ЮЗ - юго-западный, З - западный, СЗ - северо-западный.
Видимость - горизонтальная дальность видимости в метрах или километрах. При видимости от 1 до 10 км при отсутствии осадков обычно наблюдается дымка, при ухудшении видимости до 1 км и менее - туман. В сухую погоду видимость может ухудшаться дымом, пылью или мглою.
Явления - указаны атмосферные явления, наблюдавшиеся в срок или в последний час перед сроком; фигурными скобками обозначены явления, наблюдавшиеся между сроками (за 1-3 часа до срока); квадратными скобками обозначены град или гололедные отложения с указанием их диаметра в мм.
Облачность - указаны через наклонную черту общая и нижняя облачность в баллах и высота нижней границы облаков в метрах; квадратными скобками обозначены формы облаков: Ci - перистые, Cs - перисто-слоистые, Cc - перисто-кучевые, Ac - высококучевые, As - высокослоистые, Sc - слоисто-кучевые, Ns - слоисто-дождевые, Cu - кучевые, Cb - кучево-дождевые. Подробнее классификацию облаков см. в Атласе облаков (PDF).
T - Температура воздуха - температура, измеренная на высоте 2 м над землей.
Td - Температура точки росы - температура, при понижении до которой содержащийся в воздухе водяной пар достигнет насыщения.
f - Относительная влажность воздуха - влажноcть воздуха, измеренная на высоте 2 м над землей.
Te - Эффективная температура - температура, которую ощущает одетый по сезону человек в тени. Характеристика душности погоды. При расчете учитывается влияние влажности воздуха и скорости ветра на теплоощущения человека.
Tes - Эффективная температура на солнце - температура, которую ощущает человек, с поправкой на солнечный нагрев. Характеристика знойности погоды. Зависит от высоты солнца над горизонтом, облачности и скорости ветра. Ночью, в пасмурную погоду, а также при ветре 12 м/с и более поправка равна нулю.
P - Атмосферное давление - приведенное к уровню моря атмосферное давление.
Po - Атмосферное давление - измеренное на уровне метеостанции атмосферное давление.
Tmin - Минимальная температура - минимум температуры воздуха на высоте 2 м над землей.
Tmax - Максимальная температура - максимум температуры воздуха на высоте 2 м над землей.
R - Количество осадков - Количество выпавших осадков за период времени, мм. При наведении курсора мыши на число - период времени, за который выпало указанное количество осадков.
R24 - Количество осадков - Количество выпавших осадков за 24 часа, мм.
S - Снежный покров - Высота снежного покрова, см. При наведении курсора мыши на число - состояние снежного покрова и степень покрытия местности в баллах.